TimeEDT,TemperatureF,Dew PointF,Humidity,Sea Level PressureIn,VisibilityMPH,Wind Direction,Wind SpeedMPH,Gust SpeedMPH,PrecipitationIn,Events,Conditions,WindDirDegrees,DateUTC
12:15 AM,52.2,33.3,49,30.28,10.0,ENE,8.1,16.1,N/A,,Overcast,70,2013-04-23 04:15:00
12:35 AM,52.0,34.0,50,30.28,10.0,ENE,4.6,-,N/A,,Mostly Cloudy,60,2013-04-23 04:35:00
12:55 AM,49.8,32.7,52,30.28,10.0,Calm,Calm,-,N/A,,Scattered Clouds,0,2013-04-23 04:55:00
1:15 AM,49.3,33.8,55,30.28,10.0,NE,3.5,-,N/A,,Mostly Cloudy,50,2013-04-23 05:15:00
1:35 AM,49.6,35.2,58,30.28,10.0,ENE,4.6,-,N/A,,Mostly Cloudy,60,2013-04-23 05:35:00
1:55 AM,49.6,36.5,61,30.27,10.0,ENE,5.8,-,N/A,,Overcast,60,2013-04-23 05:55:00
2:15 AM,50.2,36.7,60,30.27,10.0,ENE,4.6,-,N/A,,Overcast,70,2013-04-23 06:15:00
2:35 AM,50.4,36.9,60,30.26,10.0,ENE,6.9,-,N/A,,Overcast,60,2013-04-23 06:35:00
2:55 AM,50.5,37.4,61,30.26,10.0,ENE,5.8,-,N/A,,Overcast,60,2013-04-23 06:55:00
3:15 AM,50.4,37.4,61,30.26,10.0,ENE,9.2,16.1,N/A,,Overcast,60,2013-04-23 07:15:00
3:35 AM,50.5,37.0,60,30.25,10.0,NE,9.2,-,N/A,,Overcast,50,2013-04-23 07:35:00
3:55 AM,50.4,36.9,60,30.25,10.0,NE,6.9,-,N/A,,Overcast,50,2013-04-23 07:55:00
4:15 AM,50.2,36.7,60,30.25,10.0,NE,3.5,-,N/A,,Overcast,50,2013-04-23 08:15:00
4:35 AM,50.0,37.0,61,30.25,10.0,Calm,Calm,-,N/A,,Overcast,0,2013-04-23 08:35:00
4:55 AM,49.6,37.4,63,30.25,10.0,Calm,Calm,-,N/A,,Overcast,0,2013-04-23 08:55:00
5:15 AM,49.3,36.5,61,30.24,10.0,Calm,Calm,-,N/A,,Overcast,0,2013-04-23 09:15:00
5:35 AM,49.3,37.0,63,30.24,10.0,NE,3.5,-,N/A,,Overcast,50,2013-04-23 09:35:00
5:55 AM,49.5,38.1,65,30.23,10.0,ENE,4.6,-,N/A,,Overcast,70,2013-04-23 09:55:00
6:15 AM,49.6,37.9,64,30.23,10.0,ENE,3.5,-,N/A,,Overcast,60,2013-04-23 10:15:00
6:35 AM,49.6,38.1,65,30.24,10.0,NE,4.6,-,N/A,,Overcast,40,2013-04-23 10:35:00
6:55 AM,49.6,38.3,65,30.24,10.0,NE,3.5,-,N/A,,Overcast,40,2013-04-23 10:55:00
7:15 AM,49.6,38.5,65,30.24,10.0,Calm,Calm,-,N/A,,Overcast,0,2013-04-23 11:15:00
7:35 AM,50.0,38.7,65,30.24,10.0,NE,3.5,-,N/A,,Overcast,50,2013-04-23 11:35:00
7:55 AM,50.2,39.2,66,30.24,10.0,NE,3.5,-,N/A,,Overcast,50,2013-04-23 11:55:00
8:15 AM,50.9,39.6,65,30.24,10.0,ENE,4.6,-,N/A,,Overcast,60,2013-04-23 12:15:00
8:35 AM,52.2,40.3,64,30.24,10.0,ENE,5.8,-,N/A,,Overcast,70,2013-04-23 12:35:00
8:55 AM,53.6,40.6,62,30.24,10.0,Calm,Calm,-,N/A,,Overcast,0,2013-04-23 12:55:00
9:15 AM,54.9,41.4,60,30.25,10.0,North,4.6,-,N/A,,Overcast,360,2013-04-23 13:15:00
9:35 AM,55.6,42.1,60,30.26,10.0,ENE,3.5,-,N/A,,Overcast,70,2013-04-23 13:35:00
9:55 AM,57.4,42.8,58,30.26,10.0,Calm,Calm,-,N/A,,Overcast,0,2013-04-23 13:55:00
10:15 AM,57.4,42.3,57,30.25,10.0,WSW,4.6,-,N/A,,Overcast,240,2013-04-23 14:15:00
10:35 AM,58.8,43.2,56,30.25,10.0,Calm,Calm,-,N/A,,Overcast,0,2013-04-23 14:35:00
10:55 AM,61.0,43.5,53,30.25,10.0,Calm,Calm,-,N/A,,Overcast,0,2013-04-23 14:55:00
11:15 AM,62.8,44.4,51,30.27,10.0,SSE,3.5,-,N/A,,Overcast,160,2013-04-23 15:15:00
11:35 AM,62.8,44.1,50,30.25,10.0,NW,4.6,-,N/A,,Overcast,310,2013-04-23 15:35:00
11:55 AM,64.6,45.5,50,30.23,10.0,Calm,Calm,-,N/A,,Scattered Clouds,0,2013-04-23 15:55:00
12:15 PM,66.7,47.3,50,30.22,10.0,Calm,Calm,-,N/A,,Clear,0,2013-04-23 16:15:00
12:35 PM,66.7,47.1,49,30.22,10.0,SW,3.5,-,N/A,,Clear,230,2013-04-23 16:35:00
12:55 PM,67.8,48.0,49,30.20,10.0,West,3.5,-,N/A,,Clear,260,2013-04-23 16:55:00
1:15 PM,67.8,48.0,49,30.19,10.0,East,4.6,-,N/A,,Clear,80,2013-04-23 17:15:00
1:35 PM,68.5,46.2,45,30.19,10.0,SE,5.8,-,N/A,,Scattered Clouds,130,2013-04-23 17:35:00
1:55 PM,70.0,48.4,46,30.18,10.0,South,4.6,-,N/A,,Scattered Clouds,170,2013-04-23 17:55:00
2:15 PM,69.8,47.7,45,30.17,10.0,SSW,4.6,-,N/A,,Clear,210,2013-04-23 18:15:00
2:35 PM,69.8,48.6,47,30.17,10.0,South,4.6,-,N/A,,Clear,180,2013-04-23 18:35:00
2:55 PM,71.4,48.0,43,30.16,10.0,Calm,Calm,-,N/A,,Clear,0,2013-04-23 18:55:00
3:15 PM,71.1,48.0,44,30.15,10.0,East,3.5,-,N/A,,Clear,90,2013-04-23 19:15:00
3:35 PM,72.0,45.5,39,30.13,10.0,SSE,4.6,-,N/A,,Clear,160,2013-04-23 19:35:00
3:55 PM,72.5,46.2,39,30.12,10.0,ENE,3.5,-,N/A,,Clear,70,2013-04-23 19:55:00
4:15 PM,72.5,46.9,40,30.12,10.0,SSW,6.9,-,N/A,,Clear,200,2013-04-23 20:15:00
4:35 PM,72.5,46.4,39,30.12,10.0,SE,5.8,-,N/A,,Clear,140,2013-04-23 20:35:00
4:55 PM,72.5,45.9,39,30.11,10.0,South,4.6,-,N/A,,Clear,170,2013-04-23 20:55:00
5:15 PM,72.5,45.9,39,30.10,10.0,SE,6.9,-,N/A,,Clear,140,2013-04-23 21:15:00
5:35 PM,72.5,45.5,38,30.10,10.0,SE,4.6,-,N/A,,Clear,140,2013-04-23 21:35:00
5:55 PM,70.9,46.2,41,30.09,10.0,SSW,4.6,-,N/A,,Clear,200,2013-04-23 21:55:00
6:15 PM,69.6,45.7,42,30.10,10.0,SSE,3.5,-,N/A,,Clear,150,2013-04-23 22:15:00
6:35 PM,68.0,46.0,45,30.11,10.0,SSW,4.6,-,N/A,,Clear,200,2013-04-23 22:35:00
6:55 PM,68.4,46.6,46,30.11,10.0,Calm,Calm,-,N/A,,Clear,0,2013-04-23 22:55:00
7:15 PM,68.4,46.0,45,30.11,10.0,South,3.5,-,N/A,,Clear,180,2013-04-23 23:15:00
7:35 PM,65.5,46.4,50,30.12,10.0,Calm,Calm,-,N/A,,Clear,0,2013-04-23 23:35:00
7:55 PM,64.0,46.0,52,30.12,10.0,Calm,Calm,-,N/A,,Clear,0,2013-04-23 23:55:00
8:15 PM,63.0,45.1,52,30.12,10.0,Calm,Calm,-,N/A,,Clear,0,2013-04-24 00:15:00
8:35 PM,62.2,45.0,53,30.12,10.0,SSE,3.5,-,N/A,,Clear,150,2013-04-24 00:35:00
8:55 PM,61.7,46.0,56,30.11,10.0,ESE,3.5,-,N/A,,Clear,120,2013-04-24 00:55:00
9:15 PM,60.3,45.9,59,30.12,10.0,SE,3.5,-,N/A,,Clear,130,2013-04-24 01:15:00
9:35 PM,59.2,46.4,63,30.13,10.0,SSE,3.5,-,N/A,,Clear,150,2013-04-24 01:35:00
9:55 PM,58.6,46.8,65,30.13,10.0,SSE,3.5,-,N/A,,Clear,160,2013-04-24 01:55:00
10:15 PM,58.1,46.9,66,30.13,10.0,SSE,4.6,-,N/A,,Clear,160,2013-04-24 02:15:00
10:35 PM,57.6,47.3,69,30.13,10.0,SSE,3.5,-,N/A,,Clear,150,2013-04-24 02:35:00
10:55 PM,57.2,47.5,70,30.12,10.0,Calm,Calm,-,N/A,,Clear,0,2013-04-24 02:55:00
11:15 PM,56.3,46.8,70,30.13,10.0,SSE,3.5,-,N/A,,Clear,150,2013-04-24 03:15:00
11:35 PM,55.8,46.8,72,30.13,10.0,Calm,Calm,-,N/A,,Clear,0,2013-04-24 03:35:00
11:55 PM,54.9,46.4,73,30.13,10.0,Calm,Calm,-,N/A,,Clear,0,2013-04-24 03:55:00